Location: Presov
(49.0000°N, 21.2500°E)
Time: 02:38:01
(UTC+02:00)

ISS - Pass Details

Date: 31 March 2019
Orbit: 408 x 410 km, 51.6° (Epoch: 21 April)

Event Time Altitude Azimuth Distance (km) Brightness Sun altitude
Rises 21:01:26 0° 288° (WNW) 2,339 1.5 -18.9°
Reaches altitude 10° 21:03:32 10° 290° (WNW) 1,476 0.2 -19.2°
Maximum altitude 21:06:50 76° 17° (NNE) 425 -3.8 -19.7°
Enters shadow 21:06:55 76° 35° (NE) 427 -3.9 -19.7°
